Tracking 28335 objects as of 4-Dec-2023
HD Live streaming from Space Station
objects crossing your sky now

SL-16 DEB

Track SL-16 DEB now!
10-day predictions


NORAD ID: 22494
Int'l Code: 1992-093GD
Perigee: 772.3 km
Apogee: 1,024.1 km
Inclination: 70.8 °
Period: 102.8 minutes
Semi major axis: 7269 km
RCS: 0.0111 m2 (small)
Launch date: December 25, 1992
Source: Commonwealth of Independent States (former USSR) (CIS)
Launch site: TYURATAM MISSILE AND SPACE COMPLEX (TTMTR)

Note: This is SATELLITE DEBRIS
Your satellite tracking list
Your tracking list is empty




NASA's NSSDC Master Catalog

Two Line Element Set (TLE):
1 22494U 92093GD  23336.79774079  .00007608  00000-0  44988-2 0  9997
2 22494  70.8195 227.7396 0173219 349.1358  75.7541 14.00780618558704
Source of the keplerian elements: AFSPC